STARLINK-34029, 63805

Orbit data source: Space-Track

STARLINK-34029, 63805 is a payload satellite owned by SpaceX/Seattle (US) in LEO that was launched on Sun, 04 May 2025 UTC via an FALCON 9 launch vehicle from the Air Force Eastern Test Range (AFETR). Payload-class satellites include a variety of spacecraft equipped with specific instruments for various scientific and technological missions. These include communications satellites like Starlink; space stations such as the ISS; scientific satellites like the Hubble; Earth observation satellites from companies like Planet Labs, Umbra, and HawkEye 360; GPS; miniature CubeSats for education and research; and military/defense satellites.

Loading next visibility...
Identifier
63805, 2025-092B
Orbit
LEO
Country
Flag of USUS
Related business
Manufacturer
SpaceX/Seattle
Mission
Operational Commercial Communications
Bus & Motor
STARLINK V2MO, Unknown motor
Mass
575 kg wet, ~530 kg dry
Launch date (UTC)
2025-05-04 (1 year ago)
Launch vehicle
FALCON 9
Launch site
Air Force Eastern Test Range (AFETR)
Object type
Payload
Rocket body
Debris
Shape & HBR
Box + 1 Pan, 17.7 m
Radar Cross Section
41.120 m², Large (>1 m²)

Expand to show TLE details & history
Last TLE update: 19 hours ago

TLE from 19 hours ago
0 STARLINK-34029
1 63805U 25092B   26267.02702017  .00015383  00000-0  56701-3 0  9994
2 63805  43.0031 132.7981 0000920 303.4760  56.6004 15.27600007 78947
Epoch: 2026-09-24T00:38Z
TLE epoch observation values (Epoch: 2026-09-24T00:38:54.542Z)
Latitude
-0.00001°
Longitude
120.20114°
Altitude
482.418 km
Speed
7.626 km/s
True Right ascension
08h 51m 11s
True Declination
0° 00' 00"
Sunlit
Object was in daylight at epoch
Visualization orbit readout
Latitude
Unknown
Longitude
Unknown
Altitude
Unknown
Speed
Unknown
Apparent Right ascension
Unknown
Apparent Declination
Unknown
Sunlit
N/A
Visualization observer readout
Local Sidereal Time
13:06:52
Azimuth
Unknown
Elevation
Unknown
Doppler factor
Unknown
Orbital elements
Apogee altitude
485.565 km
Perigee altitude
484.302 km
Semi-major axis
6,863.071 km
Eccentricity
0.00009
Inclination
43.0031°
RAAN
132.7981°
Arg. of periapsis
303.476°
True anomaly
56.6092°
Mean anomaly
56.6004°
Eccentric anomaly
56.6048°
Mean motion
3.81738 °/min
Orbital period
94.31 mins
BSTAR
0.00056701
Loading maneuver chart data...
Computing Atmospheric mass density...
Loading historical data...
Loading historical data...
Loading historical data...
Loading historical data...
Loading historical data...
Loading historical data...
Loading historical data...

Documentation

Showing up to 5 results
|